Hourly Weather Ray

Today, 2 July, Thursday

Time Temperature Precipitation Wind Pressure Humidity
00:00 +15°C° 0 mm 2 mps 739 mmHg 91%
01:00 +14°C° 0 mm 3 mps 739 mmHg 92%
02:00 +16°C° 0 mm 2 mps 738 mmHg 95%
03:00 +16°C° 0 mm 2 mps 738 mmHg 94%
04:00 +16°C° 0 mm 2 mps 738 mmHg 93%
05:00 +17°C° 0 mm 2 mps 738 mmHg 92%
06:00 +18°C° 0 mm 3 mps 738 mmHg 90%
07:00 +19°C° 0 mm 3 mps 739 mmHg 89%
08:00 +20°C° 0 mm 3 mps 739 mmHg 86%
09:00 +22°C° 0.6 mm 4 mps 738 mmHg 83%
10:00 +23°C° 0.6 mm 4 mps 738 mmHg 79%
11:00 +25°C° 0.6 mm 5 mps 738 mmHg 75%
12:00 +25°C° 1.3 mm 5 mps 738 mmHg 77%
13:00 +25°C° 1.3 mm 5 mps 738 mmHg 79%
14:00 +25°C° 0 mm 5 mps 738 mmHg 79%
15:00 +25°C° 0.8 mm 5 mps 738 mmHg 81%
16:00 +25°C° 0.8 mm 4 mps 738 mmHg 82%
17:00 +25°C° 0.8 mm 4 mps 738 mmHg 83%
18:00 +23°C° 0.1 mm 4 mps 738 mmHg 86%
19:00 +22°C° 0.1 mm 3 mps 738 mmHg 89%
20:00 +21°C° 0.1 mm 2 mps 738 mmHg 91%
21:00 +20°C° 0.1 mm 2 mps 738 mmHg 92%
22:00 +19°C° 0.1 mm 2 mps 738 mmHg 93%
23:00 +18°C° 0.1 mm 2 mps 738 mmHg 94%

Tomorrow, 3 July, Friday

Time Temperature Precipitation Wind Pressure Humidity
00:00 +18°C° 0 mm 2 mps 739 mmHg 94%
01:00 +18°C° 0 mm 2 mps 739 mmHg 95%
02:00 +17°C° 0 mm 2 mps 739 mmHg 95%
03:00 +18°C° 0 mm 1 mps 739 mmHg 95%
04:00 +18°C° 0 mm 1 mps 739 mmHg 95%
05:00 +18°C° 0 mm 1 mps 739 mmHg 95%
06:00 +19°C° 0.1 mm 1 mps 740 mmHg 93%
07:00 +18°C° 0.1 mm 0 mps 740 mmHg 90%
08:00 +19°C° 0.1 mm 0 mps 740 mmHg 88%
09:00 +21°C° 0.6 mm 1 mps 741 mmHg 86%
10:00 +22°C° 0.6 mm 1 mps 741 mmHg 85%
11:00 +23°C° 0.6 mm 2 mps 741 mmHg 83%
12:00 +23°C° 1.1 mm 2 mps 741 mmHg 83%
13:00 +23°C° 1.1 mm 2 mps 740 mmHg 83%
14:00 +24°C° 1.1 mm 2 mps 740 mmHg 82%
15:00 +23°C° 1.3 mm 2 mps 740 mmHg 86%
16:00 +21°C° 1.3 mm 2 mps 740 mmHg 89%
17:00 +21°C° 1.3 mm 2 mps 740 mmHg 92%
18:00 +20°C° 0.8 mm 2 mps 740 mmHg 93%
19:00 +20°C° 0.8 mm 2 mps 740 mmHg 94%
20:00 +20°C° 0.8 mm 2 mps 739 mmHg 95%
21:00 +19°C° 0.9 mm 2 mps 739 mmHg 95%
22:00 +20°C° 0.9 mm 1 mps 739 mmHg 95%
23:00 +19°C° 0.9 mm 1 mps 739 mmHg 95%

Day after tomorrow, 4 July, Saturday

Time Temperature Precipitation Wind Pressure Humidity
00:00 +19°C° 0.1 mm 1 mps 739 mmHg 95%
01:00 +19°C° 0.1 mm 1 mps 739 mmHg 95%
02:00 +18°C° 0.1 mm 1 mps 739 mmHg 95%
03:00 +18°C° 0 mm 1 mps 739 mmHg 95%
04:00 +18°C° 0 mm 1 mps 739 mmHg 95%
05:00 +17°C° 0 mm 2 mps 739 mmHg 94%
06:00 +18°C° 0 mm 2 mps 740 mmHg 92%
07:00 +19°C° 0 mm 2 mps 740 mmHg 89%
08:00 +20°C° 0 mm 2 mps 740 mmHg 86%
09:00 +21°C° 0 mm 2 mps 740 mmHg 80%
10:00 +23°C° 0 mm 2 mps 741 mmHg 75%
11:00 +24°C° 0 mm 2 mps 741 mmHg 69%
12:00 +25°C° 0 mm 2 mps 741 mmHg 68%
13:00 +25°C° 0 mm 3 mps 741 mmHg 67%
14:00 +26°C° 0 mm 3 mps 741 mmHg 66%
15:00 +25°C° 0 mm 3 mps 741 mmHg 68%
16:00 +25°C° 0 mm 3 mps 741 mmHg 71%
17:00 +25°C° 0 mm 3 mps 740 mmHg 73%
18:00 +22°C° 0 mm 3 mps 741 mmHg 76%
19:00 +20°C° 0 mm 3 mps 741 mmHg 78%
20:00 +18°C° 0 mm 3 mps 741 mmHg 80%
21:00 +17°C° 0 mm 2 mps 741 mmHg 81%
22:00 +16°C° 0 mm 2 mps 741 mmHg 82%
23:00 +15°C° 0 mm 2 mps 741 mmHg 83%

5 July, Sunday

Time Temperature Precipitation Wind Pressure Humidity
00:00 +15°C° 0 mm 2 mps 741 mmHg 84%
01:00 +15°C° 0 mm 2 mps 741 mmHg 85%
02:00 +14°C° 0 mm 2 mps 741 mmHg 87%
03:00 +14°C° 0 mm 1 mps 741 mmHg 87%
04:00 +15°C° 0 mm 1 mps 741 mmHg 88%
05:00 +15°C° 0 mm 1 mps 741 mmHg 88%
06:00 +18°C° 0 mm 1 mps 741 mmHg 83%
07:00 +19°C° 0 mm 1 mps 741 mmHg 79%
08:00 +21°C° 0 mm 1 mps 741 mmHg 74%
09:00 +21°C° 0 mm 2 mps 741 mmHg 71%
10:00 +23°C° 0 mm 2 mps 741 mmHg 67%
11:00 +24°C° 0 mm 3 mps 741 mmHg 63%
12:00 +25°C° 0 mm 3 mps 741 mmHg 62%
13:00 +25°C° 0 mm 3 mps 741 mmHg 62%
14:00 +25°C° 0 mm 4 mps 740 mmHg 61%
15:00 +25°C° 0.1 mm 3 mps 740 mmHg 66%
16:00 +24°C° 0.1 mm 3 mps 740 mmHg 72%
17:00 +22°C° 0.1 mm 3 mps 740 mmHg 77%
18:00 +21°C° 0.1 mm 3 mps 740 mmHg 81%
19:00 +20°C° 0.1 mm 3 mps 740 mmHg 86%
20:00 +19°C° 0.1 mm 3 mps 740 mmHg 90%
21:00 +19°C° 0 mm 3 mps 740 mmHg 91%
22:00 +18°C° 0 mm 3 mps 740 mmHg 92%
23:00 +17°C° 0 mm 3 mps 740 mmHg 93%

6 July, Monday

Time Temperature Precipitation Wind Pressure Humidity
00:00 +17°C° 0 mm 3 mps 739 mmHg 94%
01:00 +17°C° 0 mm 3 mps 739 mmHg 94%
02:00 +17°C° 0 mm 3 mps 739 mmHg 94%
03:00 +17°C° 0 mm 4 mps 739 mmHg 94%
04:00 +17°C° 0 mm 4 mps 739 mmHg 93%
05:00 +17°C° 0 mm 4 mps 738 mmHg 92%
06:00 +19°C° 0 mm 5 mps 738 mmHg 89%
07:00 +20°C° 0 mm 5 mps 738 mmHg 85%
08:00 +22°C° 0 mm 6 mps 738 mmHg 82%
09:00 +23°C° 0 mm 6 mps 738 mmHg 79%
10:00 +24°C° 0 mm 6 mps 738 mmHg 75%
11:00 +24°C° 0 mm 7 mps 739 mmHg 72%
12:00 +26°C° 0.2 mm 6 mps 738 mmHg 73%
13:00 +26°C° 0.2 mm 6 mps 738 mmHg 74%
14:00 +26°C° 0.2 mm 6 mps 738 mmHg 75%
15:00 +25°C° 0.4 mm 5 mps 738 mmHg 78%
16:00 +25°C° 0.4 mm 4 mps 738 mmHg 82%
17:00 +24°C° 0.4 mm 3 mps 738 mmHg 86%
18:00 +22°C° 0.1 mm 3 mps 738 mmHg 87%
19:00 +23°C° 0.1 mm 2 mps 738 mmHg 89%
20:00 +21°C° 0.1 mm 2 mps 738 mmHg 90%
21:00 +21°C° 0 mm 1 mps 738 mmHg 91%
22:00 +21°C° 0 mm 1 mps 738 mmHg 91%
23:00 +20°C° 0 mm 1 mps 738 mmHg 92%

7 July, Tuesday

Time Temperature Precipitation Wind Pressure Humidity
00:00 +20°C° 0.1 mm 1 mps 738 mmHg 93%
01:00 +20°C° 0.1 mm 1 mps 737 mmHg 93%
02:00 +19°C° 0.1 mm 2 mps 737 mmHg 94%
03:00 +19°C° 0.3 mm 2 mps 737 mmHg 95%
04:00 +19°C° 0.3 mm 2 mps 737 mmHg 96%
05:00 +19°C° 0.3 mm 2 mps 737 mmHg 96%
06:00 +19°C° 0.6 mm 2 mps 738 mmHg 96%
07:00 +19°C° 0.6 mm 2 mps 738 mmHg 95%
08:00 +20°C° 0.6 mm 2 mps 738 mmHg 94%
09:00 +19°C° 1.4 mm 2 mps 738 mmHg 94%
10:00 +19°C° 1.4 mm 2 mps 738 mmHg 93%
11:00 +19°C° 1.4 mm 2 mps 738 mmHg 93%
12:00 +19°C° 0.3 mm 3 mps 738 mmHg 91%
13:00 +19°C° 0.3 mm 3 mps 738 mmHg 89%
14:00 +18°C° 0.3 mm 3 mps 738 mmHg 88%
15:00 +18°C° 0 mm 3 mps 738 mmHg 86%
16:00 +18°C° 0 mm 3 mps 738 mmHg 84%
17:00 +17°C° 0 mm 3 mps 738 mmHg 82%
18:00 +17°C° 0 mm 3 mps 738 mmHg 80%
19:00 +16°C° 0 mm 2 mps 738 mmHg 79%
20:00 +16°C° 0 mm 2 mps 738 mmHg 77%
21:00 +16°C° 0 mm 2 mps 738 mmHg 77%
22:00 +16°C° 0 mm 2 mps 738 mmHg 76%
23:00 +14°C° 0 mm 3 mps 738 mmHg 76%
Show more